COSMOS 252 DEB, 3898

Orbit data source: Space-Track

COSMOS 252 DEB, 3898 is space debris in LEO originally from a launch on Fri, 01 Nov 1968 UTC launched from the Tyuratam Missile And Space Complex (TTMTR). Debris objects in space refer to the collection of defunct objects orbiting the Earth. Examples of debris include non-operational satellites, rocket bodies, and fragments generated from explosions, collisions, or faulty payload assembly.

Loading next visibility...
Identifier
3898, 1968-097BK
Orbit
LEO
Country
Flag of CISCIS
Related business
Manufacturer
Unknown
Mission
Spacecraft
Bus & Motor
Unknown
Mass
Unknown
Launch date (UTC)
1968-11-01 (57 years ago)
Launch vehicle
Unknown
Launch site
Tyuratam Missile And Space Complex (TTMTR)
Object type
Payload
Rocket body
Debris
Shape & HBR
Unknown shape, 0.1 m
Radar Cross Section
Small (<0.1 m²)

Expand to show TLE details & history
Last TLE update: 14 hours ago

TLE from 14 hours ago
0 COSMOS 252 DEB
1  3898U 68097BK  26100.23411080  .00000050  00000-0  13988-3 0  9993
2  3898  62.2629 174.2480 0760737  64.4637 303.3006 12.89997065664482
Epoch: 2026-04-10T05:37Z
TLE epoch observation values (Epoch: 2026-04-10T05:37:07.173Z)
Latitude
0.00001°
Longitude
-108.50258°
Altitude
1,015.381 km
Speed
7.481 km/s
True Right ascension
11h 36m 59s
True Declination
0° 00' 00"
Sunlit
Object was in full shadow at epoch
Visualization orbit readout
Latitude
Unknown
Longitude
Unknown
Altitude
Unknown
Speed
Unknown
Apparent Right ascension
Unknown
Apparent Declination
Unknown
Sunlit
N/A
Visualization observer readout
Local Sidereal Time
01:59:54
Azimuth
Unknown
Elevation
Unknown
Doppler factor
Unknown
Orbital elements
Apogee altitude
1,884.672 km
Perigee altitude
716.383 km
Semi-major axis
7,678.664 km
Eccentricity
0.07607
Inclination
62.2629°
RAAN
174.248°
Arg. of periapsis
64.4637°
True anomaly
295.63723°
Mean anomaly
303.3006°
Eccentric anomaly
299.50725°
Mean motion
3.22563 °/min
Orbital period
111.61 mins
BSTAR
0.00013988
Loading maneuver chart data...
Computing Atmospheric mass density...

Documentation

Showing up to 5 results
|